Modesto, Modesto City-County-Sham Field, United States
Lat: 37.62N, Lon: 120.95W
Local Info
Past Weather Observations for Yesterday

NOTE: This archive is for the closest National Weather Service station to Modesto, Modesto City-County-Sham Field. Information may differ from the station used for current weather conditions.

Click here for Long-term Archive

Time Weather Temperature Dewpoint Humidity Pressure Winds Precip Visibility
22:53
Clear
64°F / 18°C 34°F / 1°C 32% 30.01 in
(1016 mb)
NE 3.5 mph
(NE 6 kph)
- 10SM
21:53
Clear
66°F / 19°C 34°F / 1°C 30% 30.01 in
(1016 mb)
NNW 5.8 mph
(NNW 9 kph)
- 10SM
20:53
Clear
68°F / 20°C 30°F / -1°C 24% 30.01 in
(1016 mb)
NW 8.1 mph
(NW 13 kph)
- 10SM
19:53
Clear
73°F / 23°C 34°F / 1°C 23% 29.98 in
(1015 mb)
NW 9.2 mph
(NW 15 kph)
- 10SM
18:53
Clear
77°F / 25°C 36°F / 2°C 22% 29.95 in
(1014 mb)
NNW 5.8 mph
(NNW 9 kph)
- 10SM
17:53
Clear
82°F / 28°C 32°F / 0°C 16% 29.95 in
(1014 mb)
NNW 6.9 mph
(NNW 11 kph)
- 10SM
16:53
Clear
84°F / 29°C 27°F / -3°C 12% 29.98 in
(1015 mb)
NW 9.2 mph
(NW 15 kph)
- 10SM
15:53
Clear
84°F / 29°C 28°F / -2°C 13% 29.98 in
(1015 mb)
NNE 8.1 mph
(NNE 13 kph)
- 10SM
14:53
Clear
84°F / 29°C 30°F / -1°C 14% 29.98 in
(1015 mb)
NNW 8.1 mph
(NNW 13 kph)
- 10SM
13:53
Clear
82°F / 28°C 28°F / -2°C 14% 30.01 in
(1016 mb)
NW 3.5 mph
(NW 6 kph)
- 10SM
12:53
Clear
82°F / 28°C 30°F / -1°C 15% 30.04 in
(1017 mb)
SW 5.8 mph
(SW 9 kph)
- 10SM
10:53
Clear
75°F / 24°C 36°F / 2°C 24% 30.06 in
(1018 mb)
SE 5.8 mph
(SE 9 kph)
- 10SM
09:53
Clear
72°F / 22°C 39°F / 4°C 31% 30.09 in
(1019 mb)
ESE 5.8 mph
(ESE 9 kph)
- 10SM
08:53
Clear
66°F / 19°C 39°F / 4°C 37% 30.09 in
(1019 mb)
SSE 4.6 mph
(SSE 7 kph)
- 10SM
07:53
Clear
61°F / 16°C 43°F / 6°C 52% 30.09 in
(1019 mb)
E 5.8 mph
(E 9 kph)
- 10SM
06:53
Clear
55°F / 13°C 43°F / 6°C 63% 30.06 in
(1018 mb)
SE 3.5 mph
(SE 6 kph)
- 10SM
05:53
Clear
48°F / 9°C 43°F / 6°C 82% 30.06 in
(1018 mb)
Calm - 10SM
04:53
Clear
46°F / 8°C 41°F / 5°C 82% 30.04 in
(1017 mb)
ESE 4.6 mph
(ESE 7 kph)
- 10SM
03:53
Clear
52°F / 11°C 41°F / 5°C 67% 30.04 in
(1017 mb)
Calm - 10SM
02:53
Clear
52°F / 11°C 41°F / 5°C 67% 30.04 in
(1017 mb)
Calm - 10SM
01:53
Clear
50°F / 10°C 41°F / 5°C 71% 30.04 in
(1017 mb)
ESE 5.8 mph
(ESE 9 kph)
- 10SM
00:53
Clear
54°F / 12°C 41°F / 5°C 63% 30.04 in
(1017 mb)
SE 4.6 mph
(SE 7 kph)
- 10SM
Time Weather Temperature Dewpoint Humidity Pressure Winds Precip Visibility


Weather for websites

WeatherForYou.com, LLC is not responsible for any damages or problems caused by this service. Current weather conditions are obtained from the closest station including government and personal stations which may have varying degrees of accuracy. Weather forecasts are derived from the NOAA NDFD. Like all things, this site belongs to Jesus Christ... He just trusts me to maintain it. If you have any questions or comments email webmaster@weatherforyou.com

Copyright © 2015, WeatherForYou.com LLC. All rights reserved.